�������l�o���
Date,Time,MP-1(��Sv/h),MP-2(��Sv/h),MP-3(��Sv/h),MP-4(��Sv/h),MP-5(��Sv/h),MP-6(��Sv/h),MP-7(��Sv/h),MP-8(��Sv/h),����,����(m/s),���J
2024/01/28,00:00,0.507,0.768,0.481,0.963,0.683,0.311,0.554,0.520,��,4.2,��
2024/01/28,00:10,0.506,0.769,0.482,0.965,0.681,0.312,0.555,0.520,��,4.1,��
2024/01/28,00:20,0.508,0.766,0.482,0.964,0.684,0.309,0.554,0.521,��,4.2,��
2024/01/28,00:30,0.505,0.767,0.481,0.967,0.684,0.312,0.554,0.520,���k��,4.5,��
2024/01/28,00:40,0.505,0.767,0.479,0.964,0.683,0.311,0.554,0.522,���k��,4.5,��
2024/01/28,00:50,0.508,0.767,0.481,0.965,0.682,0.310,0.555,0.520,���k��,4.0,��
2024/01/28,01:00,0.507,0.767,0.481,0.965,0.685,0.310,0.553,0.520,���k��,4.0,��
2024/01/28,01:10,0.507,0.767,0.480,0.964,0.683,0.311,0.554,0.520,���k��,4.2,��
2024/01/28,01:20,0.506,0.768,0.481,0.964,0.683,0.311,0.555,0.520,���k��,4.9,��
2024/01/28,01:30,0.506,0.768,0.481,0.965,0.684,0.311,0.553,0.521,���k��,5.4,��
2024/01/28,01:40,0.506,0.766,0.480,0.966,0.682,0.311,0.554,0.521,���k��,5.2,��
2024/01/28,01:50,0.507,0.765,0.481,0.965,0.683,0.310,0.555,0.521,��,3.9,��
2024/01/28,02:00,0.505,0.767,0.481,0.966,0.684,0.311,0.552,0.521,��,4.0,��
2024/01/28,02:10,0.507,0.767,0.481,0.967,0.684,0.310,0.553,0.521,��,4.7,��
2024/01/28,02:20,0.508,0.768,0.481,0.966,0.683,0.310,0.554,0.520,��,4.5,��
2024/01/28,02:30,0.506,0.768,0.481,0.966,0.682,0.311,0.552,0.520,���k��,4.2,��
2024/01/28,02:40,0.506,0.767,0.480,0.965,0.684,0.313,0.555,0.521,�k��,3.5,��
2024/01/28,02:50,0.507,0.766,0.481,0.965,0.681,0.311,0.556,0.521,�k��,2.5,��
2024/01/28,03:00,0.508,0.766,0.480,0.965,0.684,0.312,0.554,0.519,���k��,3.3,��
2024/01/28,03:10,0.507,0.768,0.481,0.964,0.684,0.311,0.554,0.520,���k��,3.1,��
2024/01/28,03:20,0.508,0.768,0.481,0.965,0.684,0.311,0.554,0.521,���k��,2.6,��
2024/01/28,03:30,0.507,0.767,0.480,0.964,0.684,0.311,0.553,0.520,��,2.6,��
2024/01/28,03:40,0.506,0.767,0.482,0.962,0.683,0.311,0.554,0.518,��,2.9,��
2024/01/28,03:50,0.505,0.767,0.481,0.965,0.683,0.310,0.553,0.520,��,2.3,��
2024/01/28,04:00,0.505,0.766,0.481,0.967,0.683,0.311,0.554,0.520,��,3.1,��
2024/01/28,04:10,0.506,0.767,0.481,0.965,0.683,0.312,0.554,0.519,��,3.2,��
2024/01/28,04:20,0.507,0.768,0.481,0.965,0.683,0.311,0.554,0.519,��,5.1,��
2024/01/28,04:30,0.507,0.769,0.481,0.965,0.682,0.310,0.554,0.521,��,5.2,��
2024/01/28,04:40,0.507,0.766,0.481,0.965,0.682,0.311,0.554,0.520,���k��,5.1,��
2024/01/28,04:50,0.507,0.769,0.481,0.967,0.684,0.312,0.554,0.520,���k��,4.1,��
2024/01/28,05:00,0.508,0.767,0.481,0.965,0.682,0.311,0.555,0.518,���k��,4.7,��
2024/01/28,05:10,0.507,0.767,0.479,0.965,0.683,0.311,0.554,0.519,��,4.7,��
2024/01/28,05:20,0.506,0.767,0.481,0.965,0.684,0.310,0.555,0.519,��,4.5,��
2024/01/28,05:30,0.507,0.767,0.481,0.965,0.684,0.312,0.553,0.521,��,4.9,��
2024/01/28,05:40,0.507,0.770,0.480,0.965,0.681,0.310,0.555,0.519,��,4.4,��
2024/01/28,05:50,0.506,0.768,0.479,0.965,0.683,0.311,0.554,0.520,��,5.4,��
2024/01/28,06:00,0.506,0.768,0.481,0.965,0.683,0.311,0.554,0.520,��,5.4,��
2024/01/28,06:10,0.507,0.767,0.479,0.966,0.680,0.310,0.554,0.520,��,5.2,��
2024/01/28,06:20,0.506,0.766,0.480,0.964,0.683,0.311,0.555,0.520,���k��,5.6,��
2024/01/28,06:30,0.506,0.767,0.480,0.967,0.681,0.311,0.555,0.519,��,4.2,��
2024/01/28,06:40,0.505,0.767,0.481,0.966,0.682,0.311,0.552,0.521,��,3.2,��
2024/01/28,06:50,0.505,0.766,0.479,0.962,0.683,0.311,0.553,0.521,��,3.5,��
2024/01/28,07:00,0.505,0.767,0.480,0.964,0.682,0.311,0.554,0.520,���k��,2.6,��
2024/01/28,07:10,0.505,0.768,0.481,0.965,0.682,0.310,0.555,0.521,��,2.6,��
2024/01/28,07:20,0.507,0.767,0.481,0.964,0.682,0.311,0.553,0.521,���k��,4.1,��
2024/01/28,07:30,0.506,0.766,0.480,0.964,0.681,0.311,0.553,0.521,���k��,4.7,��
2024/01/28,07:40,0.506,0.766,0.481,0.965,0.683,0.311,0.552,0.519,��,3.5,��
2024/01/28,07:50,0.507,0.767,0.480,0.965,0.682,0.311,0.552,0.521,��,3.2,��
2024/01/28,08:00,0.506,0.766,0.480,0.965,0.681,0.311,0.554,0.520,��,3.9,��
2024/01/28,08:10,0.507,0.766,0.480,0.964,0.683,0.312,0.552,0.521,��,3.7,��
2024/01/28,08:20,0.505,0.768,0.480,0.966,0.681,0.311,0.555,0.521,���쐼,2.9,��
2024/01/28,08:30,0.506,0.768,0.480,0.966,0.684,0.312,0.553,0.520,��,3.1,��
2024/01/28,08:40,0.507,0.767,0.480,0.966,0.682,0.311,0.555,0.521,��,2.9,��
2024/01/28,08:50,0.506,0.768,0.479,0.966,0.684,0.311,0.554,0.520,��,2.5,��
2024/01/28,09:00,0.507,0.768,0.482,0.965,0.683,0.310,0.554,0.519,���k��,2.3,��
2024/01/28,09:10,0.507,0.768,0.482,0.967,0.684,0.311,0.556,0.521,�k��,2.6,��
2024/01/28,09:20,0.507,0.769,0.481,0.966,0.683,0.310,0.555,0.521,�k��,2.0,��
2024/01/28,09:30,0.509,0.768,0.480,0.965,0.686,0.312,0.555,0.521,���k��,2.0,��
2024/01/28,09:40,0.506,0.770,0.481,0.967,0.685,0.310,0.554,0.520,��,2.3,��
2024/01/28,09:50,0.509,0.769,0.482,0.965,0.684,0.311,0.557,0.522,���k��,2.8,��
2024/01/28,10:00,0.509,0.766,0.481,0.964,0.684,0.310,0.554,0.521,�k��,5.2,��
2024/01/28,10:10,0.508,0.767,0.482,0.964,0.685,0.312,0.554,0.521,��,3.3,��
2024/01/28,10:20,0.509,0.766,0.481,0.966,0.685,0.312,0.554,0.521,���k��,3.4,��
2024/01/28,10:30,0.508,0.767,0.483,0.966,0.687,0.311,0.553,0.520,�k��,4.6,��
2024/01/28,10:40,0.509,0.767,0.481,0.967,0.685,0.311,0.555,0.522,���k��,4.3,��
2024/01/28,10:50,0.510,0.768,0.482,0.966,0.687,0.313,0.554,0.522,�k��,3.3,��
2024/01/28,11:00,0.508,0.767,0.483,0.964,0.685,0.312,0.554,0.522,�k��,4.2,��
2024/01/28,11:10,0.509,0.768,0.482,0.970,0.684,0.312,0.555,0.522,���k��,5.7,��
2024/01/28,11:20,0.509,0.769,0.483,0.968,0.686,0.311,0.554,0.522,���k��,4.4,��
2024/01/28,11:30,0.509,0.768,0.483,0.966,0.685,0.312,0.555,0.521,�k��,3.2,��
2024/01/28,11:40,0.509,0.769,0.481,0.965,0.684,0.312,0.554,0.521,�k��,4.6,��
2024/01/28,11:50,0.510,0.768,0.483,0.966,0.686,0.312,0.555,0.521,�k��,4.6,��
2024/01/28,12:00,0.510,0.770,0.482,0.968,0.687,0.311,0.555,0.520,�k��,3.9,��
2024/01/28,12:10,0.510,0.771,0.482,0.968,0.688,0.312,0.554,0.522,�k��,3.1,��
2024/01/28,12:20,0.510,0.769,0.483,0.967,0.686,0.313,0.555,0.522,���k��,4.1,�L
2024/01/28,12:30,0.510,0.771,0.483,0.968,0.686,0.314,0.553,0.522,�k��,3.6,�L
2024/01/28,12:40,0.508,0.771,0.483,0.968,0.689,0.313,0.555,0.521,�k�k��,4.1,��
2024/01/28,12:50,0.510,0.769,0.483,0.967,0.685,0.313,0.554,0.522,�k�k��,4.8,��
2024/01/28,13:00,0.510,0.768,0.483,0.967,0.687,0.312,0.553,0.522,�k�k��,3.9,��
2024/01/28,13:10,0.509,0.769,0.483,0.967,0.686,0.313,0.556,0.522,�k�k��,4.0,��
2024/01/28,13:20,0.509,0.770,0.484,0.968,0.687,0.312,0.554,0.522,�k�k��,5.3,��
2024/01/28,13:30,0.508,0.771,0.483,0.968,0.689,0.313,0.556,0.523,�k�k��,4.5,��
2024/01/28,13:40,0.509,0.771,0.483,0.967,0.684,0.313,0.555,0.522,�k�k��,3.9,��
2024/01/28,13:50,0.511,0.771,0.483,0.969,0.687,0.312,0.556,0.521,�k�k��,5.2,��
2024/01/28,14:00,0.511,0.771,0.484,0.968,0.687,0.313,0.557,0.522,�k�k��,6.0,��
2024/01/28,14:10,0.510,0.773,0.483,0.969,0.687,0.311,0.556,0.522,�k�k��,6.1,��
2024/01/28,14:20,0.509,0.769,0.484,0.967,0.687,0.313,0.556,0.522,�k�k��,6.3,��
2024/01/28,14:30,0.510,0.770,0.484,0.968,0.687,0.312,0.557,0.520,�k�k��,5.8,��
2024/01/28,14:40,0.508,0.771,0.482,0.968,0.687,0.312,0.556,0.523,�k�k��,6.2,��
2024/01/28,14:50,0.509,0.770,0.481,0.968,0.685,0.313,0.556,0.520,�k�k��,6.1,��
2024/01/28,15:00,0.510,0.772,0.484,0.969,0.687,0.313,0.555,0.522,�k�k��,5.7,��
2024/01/28,15:10,0.509,0.772,0.482,0.969,0.686,0.312,0.555,0.522,�k�k��,4.8,��
2024/01/28,15:20,0.509,0.772,0.482,0.970,0.686,0.312,0.556,0.522,�k�k��,4.3,��
2024/01/28,15:30,0.509,0.771,0.483,0.970,0.685,0.313,0.557,0.520,�k�k��,3.6,��
2024/01/28,15:40,0.508,0.770,0.482,0.968,0.687,0.312,0.556,0.522,�k��,5.0,��
2024/01/28,15:50,0.510,0.772,0.484,0.968,0.687,0.312,0.556,0.521,�k�k��,5.1,��
2024/01/28,16:00,0.509,0.770,0.483,0.969,0.686,0.311,0.555,0.521,�k��,4.5,��
2024/01/28,16:10,0.507,0.769,0.483,0.968,0.687,0.311,0.555,0.522,�k��,4.4,��
2024/01/28,16:20,0.509,0.769,0.481,0.967,0.688,0.313,0.558,0.523,�k��,3.4,��
2024/01/28,16:30,0.509,0.771,0.483,0.968,0.687,0.312,0.555,0.521,�k�k��,3.5,��
2024/01/28,16:40,0.507,0.771,0.481,0.968,0.686,0.313,0.557,0.522,�k��,3.2,��
2024/01/28,16:50,0.509,0.771,0.481,0.968,0.686,0.311,0.557,0.521,�k��,3.8,��
2024/01/28,17:00,0.510,0.769,0.483,0.970,0.686,0.312,0.558,0.521,�k�k��,4.6,��
2024/01/28,17:10,0.508,0.768,0.484,0.969,0.685,0.311,0.558,0.522,�k��,5.7,��
2024/01/28,17:20,0.508,0.770,0.481,0.967,0.687,0.311,0.557,0.520,�k��,5.5,��
2024/01/28,17:30,0.509,0.770,0.482,0.968,0.686,0.311,0.557,0.519,�k��,5.7,��
2024/01/28,17:40,0.508,0.770,0.483,0.969,0.686,0.312,0.556,0.522,�k��,6.5,��
2024/01/28,17:50,0.511,0.768,0.481,0.966,0.685,0.311,0.556,0.520,�k�k��,5.6,��
2024/01/28,18:00,0.509,0.770,0.481,0.969,0.685,0.311,0.558,0.521,�k�k��,6.5,��
2024/01/28,18:10,0.507,0.769,0.482,0.968,0.686,0.312,0.557,0.521,�k�k��,7.9,��
2024/01/28,18:20,0.508,0.769,0.481,0.968,0.686,0.311,0.557,0.521,�k�k��,6.7,��
2024/01/28,18:30,0.509,0.769,0.481,0.967,0.686,0.312,0.556,0.520,�k�k��,7.1,��
2024/01/28,18:40,0.508,0.768,0.481,0.970,0.686,0.311,0.557,0.520,�k��,7.4,��
2024/01/28,18:50,0.508,0.768,0.483,0.970,0.686,0.311,0.558,0.521,�k��,7.7,��
2024/01/28,19:00,0.508,0.770,0.481,0.968,0.687,0.311,0.558,0.521,�k��,6.9,��
2024/01/28,19:10,0.509,0.770,0.482,0.968,0.686,0.312,0.557,0.522,�k��,6.0,��
2024/01/28,19:20,0.508,0.769,0.482,0.965,0.686,0.312,0.557,0.520,�k��,6.5,��
2024/01/28,19:30,0.508,0.770,0.482,0.967,0.688,0.312,0.559,0.519,�k��,7.7,��
2024/01/28,19:40,0.509,0.769,0.482,0.968,0.686,0.313,0.558,0.520,�k�k��,7.5,��
2024/01/28,19:50,0.508,0.769,0.483,0.969,0.684,0.314,0.556,0.521,�k�k��,7.5,��
2024/01/28,20:00,0.509,0.770,0.482,0.969,0.685,0.311,0.557,0.521,�k�k��,7.1,��
2024/01/28,20:10,0.508,0.768,0.482,0.966,0.685,0.312,0.557,0.521,�k�k��,6.7,��
2024/01/28,20:20,0.510,0.768,0.482,0.968,0.687,0.312,0.558,0.520,�k�k��,4.7,��
2024/01/28,20:30,0.509,0.770,0.482,0.967,0.686,0.313,0.556,0.520,�k�k��,6.0,��
2024/01/28,20:40,0.509,0.770,0.480,0.970,0.686,0.311,0.558,0.520,�k�k��,8.4,��
2024/01/28,20:50,0.509,0.770,0.481,0.969,0.687,0.311,0.556,0.521,�k�k��,8.8,��
2024/01/28,21:00,0.508,0.769,0.483,0.968,0.687,0.310,0.558,0.521,�k�k��,7.0,��
2024/01/28,21:10,0.507,0.770,0.483,0.967,0.686,0.311,0.557,0.520,�k,6.4,��
2024/01/28,21:20,0.508,0.770,0.481,0.968,0.686,0.311,0.557,0.520,�k�k��,6.3,��
2024/01/28,21:30,0.507,0.770,0.482,0.968,0.684,0.311,0.557,0.521,�k�k��,5.9,��
2024/01/28,21:40,0.508,0.770,0.483,0.967,0.686,0.311,0.557,0.521,�k�k��,6.2,��
2024/01/28,21:50,0.507,0.770,0.481,0.969,0.686,0.310,0.556,0.521,�k�k��,6.6,��
2024/01/28,22:00,0.509,0.771,0.482,0.968,0.685,0.311,0.557,0.520,�k��,5.7,��
2024/01/28,22:10,0.508,0.768,0.481,0.970,0.685,0.311,0.556,0.521,�k�k��,5.1,��
2024/01/28,22:20,0.509,0.769,0.482,0.968,0.685,0.312,0.556,0.521,�k�k��,6.7,��
2024/01/28,22:30,0.507,0.768,0.481,0.968,0.687,0.310,0.555,0.521,�k�k��,5.9,��
2024/01/28,22:40,0.507,0.771,0.481,0.967,0.685,0.311,0.554,0.518,�k�k��,5.9,��
2024/01/28,22:50,0.506,0.771,0.480,0.969,0.686,0.312,0.555,0.520,�k�k��,5.4,��
2024/01/28,23:00,0.508,0.770,0.481,0.967,0.686,0.311,0.556,0.520,�k�k��,4.7,��
2024/01/28,23:10,0.508,0.771,0.482,0.967,0.686,0.311,0.557,0.520,�k��,4.7,��
2024/01/28,23:20,0.506,0.771,0.479,0.967,0.686,0.311,0.555,0.520,�k��,5.7,��
2024/01/28,23:30,0.507,0.768,0.481,0.967,0.686,0.310,0.553,0.521,�k�k��,6.1,��
2024/01/28,23:40,0.507,0.768,0.480,0.968,0.685,0.312,0.555,0.519,�k�k��,5.8,��
2024/01/28,23:50,0.507,0.768,0.481,0.968,0.683,0.310,0.555,0.520,�k��,6.5,��
